11. August 2022

Uhrzeit Code Wetter Temp. Sichtweite Wolkendecke Wind METAR/SPECI
14:00
V
31 °C 10 km+ - 160° 160° 15 - 25 kt METAR AYPY 110400Z 16015G25KT 9999 FUHZ SCT040 31/22 Q1008
13:00
V
31 °C 10 km+ - 140° 140° 10 - 20 kt METAR AYPY 110300Z 14010G20KT 9999 FUHZ SCT030 SCT040 31/22 Q1009
12:00
V
31 °C 10 km+ 4.000 ft 160° 160° 12 kt METAR AYPY 110200Z 16012KT 9999 BKN040 31/22 Q1010
11:00
V
30 °C 10 km+ 4.000 ft 170° 170° 12 kt METAR AYPY 110100Z 17012KT 9999 SCT030 BKN040 30/22 Q1010
10:00
V
29 °C 10 km+ - 150° 150° 10 - 15 kt METAR AYPY 110000Z 15010G15KT 9999 HZ FEW050 29/22 Q1011
09:00
V
27 °C 10 km+ 4.000 ft 140° 140° 10 kt METAR AYPY 102300Z 14010KT 9999 BKN040 27/22 Q1011
08:00
V
26 °C 10 km+ - 150° 150° 10 kt METAR AYPY 102200Z 15010KT 9999 HZ FEW050 26/22 Q1011
07:00
V
24 °C 10 km+ - 140° 140° 7 kt METAR AYPY 102100Z 14007KT 9999 HZ FEW050 24/21 Q1011
06:00
V
24 °C 10 km+ - 120° 120° 5 kt METAR AYPY 102000Z 12005KT 9999 FEW050 24/21 Q1010
05:00
V
23 °C 10 km+ - 140° 140° 5 kt METAR AYPY 101900Z 14005KT 9999 FEW050 23/21 Q1009
04:00
V
23 °C 10 km+ - 130° 130° 7 kt METAR AYPY 101800Z 13007KT 9999 FEW050 23/21 Q1009
03:00
V
25 °C 10 km+ - 140° 140° 7 kt METAR AYPY 101700Z 14007KT 9999 FEW050 25/21 Q1010
02:00
V
25 °C 10 km+ - 150° 150° 8 kt METAR AYPY 101600Z 15008KT 9999 FEW050 25/21 Q1010
01:00
V
24 °C 10 km+ - 150° 150° 15 kt METAR AYPY 101500Z 15015KT 9999 FEW040 24/22 Q1010
00:00
V
25 °C 10 km+ - 130° 130° 15 kt METAR AYPY 101400Z 13015KT 9999 FEW030 25/22 Q1011

10. August 2022

Uhrzeit Code Wetter Temp. Sichtweite Wolkendecke Wind METAR/SPECI
23:00
V
25 °C 10 km+ - 140° 140° 15 - 20 kt METAR AYPY 101300Z 14015G20KT 9999 FEW050 25/22 Q1011
22:00
V
25 °C 10 km+ - 150° 150° 15 - 20 kt METAR AYPY 101200Z 15015G20KT 9999 FEW050 25/22 Q1011
21:00
V
25 °C 10 km+ - 150° 150° 15 - 20 kt METAR AYPY 101100Z 15015G20KT 9999 FEW050 25/22 Q1011
20:00
V
26 °C 10 km+ - 150° 150° 15 - 20 kt METAR AYPY 101000Z 15015G20KT 9999 FEW030 SCT060 26/23 Q1011
19:00
V
26 °C 10 km+ 6.000 ft 160° 160° 15 - 20 kt METAR AYPY 100900Z 16015G20KT 9999 SCT030 BKN060 26/23 Q1010
18:00
V
26 °C 10 km+ - 160° 160° 15 - 20 kt METAR AYPY 100800Z 16015G20KT 9999 FUHZ SCT030 SCT060 26/23 Q1009
17:00
V
27 °C 10 km+ - 160° 160° 15 - 20 kt METAR AYPY 100700Z 16015G20KT 9999 FUHZ SCT030 SCT060 27/23 Q1009
16:00
V
27 °C 10 km+ 3.000 ft 160° 160° 15 - 23 kt METAR AYPY 100600Z 16015G23KT 9999 SCT020 BKN030 OVC045 27/23 Q1009
15:00
V
28 °C 10 km+ 3.500 ft 160° 160° 20 - 25 kt METAR AYPY 100500Z 16020G25KT 9999 SCT025 BKN035 28/23 Q1008
14:00
V
28 °C 10 km+ 3.500 ft 160° 160° 15 - 20 kt METAR AYPY 100400Z 16015G20KT 9999 FEW020 SCT025 BKN035 28/23 Q1009
13:00
V
28 °C 10 km+ 3.000 ft 160° 160° 15 - 20 kt METAR AYPY 100300Z 16015G20KT 9999 SCT020 OVC030 28/23 Q1010
12:00
V
27 °C 10 km+ 3.500 ft 160° 160° 15 - 20 kt METAR AYPY 100200Z 16015G20KT 9999 SCT025 OVC035 27/23 Q1011
11:00
V
28 °C 10 km+ 3.500 ft 160° 160° 20 kt METAR AYPY 100100Z 16020KT 9999 SCT025 OVC035 28/23 Q1011
10:00
V
28 °C 10 km+ 3.500 ft 160° 160° 20 kt METAR AYPY 100000Z 16020KT 9999 SCT025 OVC035 28/22 Q1011
09:00
V
27 °C 10 km+ 3.500 ft 140° 140° 15 - 20 kt METAR AYPY 092300Z 14015G20KT 9999 SCT025 BKN035 27/23 Q1012
08:00
V
26 °C 10 km+ - 140° 140° 12 - 16 kt METAR AYPY 092200Z 14012G16KT 9999 SCT020 SCT030 26/22 Q1012 RMK/CB TO THE NW
07:00
V
25 °C 10 km+ 3.000 ft 150° 150° 12 - 18 kt METAR AYPY 092100Z 15012G18KT 9999 BKN030 SCT030 25/22 Q1011
05:00
V
25 °C 10 km+ - 140° 140° 10 kt METAR AYPY 091900Z 14010KT 9999 SKC 25/22 Q1010
04:00
V
25 °C 10 km+ - 130° 130° 10 kt METAR AYPY 091800Z 13010KT 9999 SKC 25/22 Q1009
03:00
V
25 °C 10 km+ - 140° 140° 10 kt METAR AYPY 091700Z 14010KT 9999 SKC 25/22 Q1009
02:00
V
25 °C 10 km+ - 130° 130° 10 kt METAR AYPY 091600Z 13010KT 9999 SKC 25/22 Q1010
01:00
V
26 °C 10 km+ - 140° 140° 15 - 20 kt METAR AYPY 091500Z 14015G20KT 9999 SCT100 26/22 Q1010
00:00
V
26 °C 10 km+ - 140° 140° 15 - 20 kt METAR AYPY 091400Z 14015G20KT 9999 SCT080 26/22 Q1010

9. August 2022

Uhrzeit Code Wetter Temp. Sichtweite Wolkendecke Wind METAR/SPECI
23:00
V
26 °C 10 km+ - 140° 140° 15 - 20 kt METAR AYPY 091300Z 14015G20KT 9999 SKC 26/22 Q1010
22:00
V
26 °C 10 km+ - 140° 140° 15 - 20 kt METAR AYPY 091200Z 14015G20KT 9999 SKC 26/22 Q1010
21:00
V
26 °C 10 km+ - 140° 140° 15 - 20 kt METAR AYPY 091100Z 14015G20KT 9999 SKC 26/22 Q1010
19:00
V
27 °C 10 km+ - 150° 150° 15 - 20 kt METAR AYPY 090900Z 15015G20KT 9999 SKC 27/21 Q1008
18:00
V
27 °C 10 km+ - 160° 160° 19 kt METAR AYPY 090800Z 16019KT 9999 FUHZ SCT030 27/22 Q1008
17:00
V
29 °C 10 km+ - 160° 160° 23 kt METAR AYPY 090700Z 16023KT 9999 FUHZ SCT030 29/22 Q1007
16:00
V
31 °C 10 km+ - 160° 160° 23 kt METAR AYPY 090600Z 16023KT 9999 FUHZ SCT035 31/21 Q1006
15:00
V
32 °C 10 km+ - 160° 160° 20 kt METAR AYPY 090500Z 16020KT 9999 FUHZ SCT035 32/20 Q1006
14:00
V
33 °C 10 km+ - 150° 150° 21 kt METAR AYPY 090400Z 15021KT 9999 HZ SCT035 33/18 Q1007
13:00
V
33 °C 10 km+ - 150° 150° 17 kt METAR AYPY 090300Z 15017KT 9999 SCT030 33/19 Q1008
Ältere Daten

Wir und Dritte verfolgen dein Internetverhalten auf unserer Website mit Cookies. Wenn du fortfährst, gehen wir davon aus, dass du mit unserer Cookie-Richtlinie einverstanden bist. Mehr erfahren